Home   Weather   Fernando de Noronha   Past weeks

Flag for Brazil Past Weather in Fernando de Noronha, Pernambuco, Brazil — Yesterday and Last 2 Weeks

Now
77 °F

Passing clouds.


Feels Like: 78 °F
Forecast: 78 / 82 °F
Wind: 10 mph from South

Location: Natal Aeroporto

Current Time: May 1, 2017 at 12:35:57 am

Latest Report: May 1, 2017 at 12:00 am


Visibility: N/A

Pressure: 29.92 "Hg

Humidity: 89%

Dew Point: 73 °F

Location of Fernando de NoronhaLocation

Past Weather in Fernando de Noronha — Graph

°F

Fernando de Noronha Temperature Yesterday

Maximum temperature yesterday: 84 °F (at 3:00 pm)
Minimum temperature yesterday: 37 °F (at 8:43 am)
Average temperature yesterday: 74 °F

High & Low Weather Summary for the Past Weeks

 TemperatureHumidityPressure
High90 °F (Apr 16, 1:00 pm)100% (Apr 16, 4:00 am)29.98 "Hg (Apr 16, 4:00 am)
Low37 °F (Apr 30, 8:43 am)52% (Apr 16, 1:00 pm)29.80 "Hg (Apr 16, 3:00 pm)
Average80 °F81%29.88 "Hg
* Reported Apr 15 11:00 pm — Apr 30 11:00 pm, Fernando de Noronha, Weather by CustomWeather, © 2017

Note: Actual official high and low records may vary slightly from our data, if they occured in-between our weather recording intervals... More about our weather records

Advertising

Fernando de Noronha Weather History for the Previous 24 Hours

Scroll right to see more
 ConditionsComfort  
Time TempWeatherWind HumidityBarometerVisibility
11:00 pm
Sun, Apr 30
79 °FPartly cloudy.9 mph84%29.95 "HgN/A
10:00 pm77 °FPassing clouds.8 mph89%29.92 "HgN/A
9:00 pm77 °FPassing clouds.6 mph89%29.92 "HgN/A
8:00 pm79 °FPassing clouds.8 mph84%29.92 "HgN/A
7:00 pm79 °FPassing clouds.6 mph89%29.89 "HgN/A
6:00 pm81 °FScattered clouds.10 mph79%29.89 "HgN/A
5:00 pm82 °FScattered clouds.10 mph74%29.86 "HgN/A
4:00 pm84 °FScattered clouds.13 mph70%29.86 "HgN/A
3:00 pm84 °FScattered clouds.14 mph70%29.86 "HgN/A
2:00 pm81 °FScattered clouds.8 mph84%29.92 "HgN/A
1:00 pm79 °FScattered clouds.8 mph89%29.95 "HgN/A
10:00 am73 °FScattered showers. Broken clouds.9 mph100%29.98 "HgN/A
9:00 am37 °FScattered showers. Broken clouds.7 mph100%29.98 "HgN/A
8:43 am37 °FScattered showers. Partly sunny.5 mph100%29.95 "Hg5 mi
8:22 am73 °FLight rain. Fog.6 mph100%29.95 "Hg3 mi
8:00 am73 °FRain. Fog.12 mph100%29.95 "Hg2 mi
7:00 am73 °FLight rain. Partly sunny.8 mph100%29.92 "Hg2 mi
6:00 am75 °FHeavy rain. Fog.5 mph100%29.92 "Hg2 mi
5:00 am75 °FLight rain. Passing clouds.6 mph94%29.89 "Hg4 mi
4:00 am75 °FLight rain. Partly cloudy.9 mph100%29.89 "Hg4 mi
3:00 am75 °FLight rain. Passing clouds.8 mph100%29.89 "Hg5 mi
2:00 am75 °FRain. Partly cloudy.6 mph100%29.92 "Hg2 mi
1:00 am77 °FRain. Fog.8 mph94%29.92 "Hg3 mi
12:00 am77 °FPartly cloudy.6 mph94%29.95 "HgN/A
Weather by CustomWeather, © 2017

See weather overviewHow to use our weather pages